TNO1122 TFFF-MHLM

Flight info

Callsign TNO1122
Flight time 4h 2m
Altitude 36000
Route EMOLA2R EMOLA DCT ARMUR DCT MASEN/N0459F380 DCT HANCK DCT BONOS DCT BATAN BATAN1B
Aircraft A319/M-SDE3FGHIRWY/LB1

Departure

Time 2026-04-29 11:24
Airport Martinique Aimé Césaire International Airport (TFFF)

Arrival

Time 2026-04-29 15:26
Airport Ramón Villeda Morales International Airport (MHLM)
Time Latitude Longitude Altitude Speed Heading
2026-04-29 11:13 14.59471 -61.00302 28 ft 0 kts 353°
2026-04-29 11:17 14.59472 -61.00302 28 ft 0 kts 354°
2026-04-29 11:18 14.59468 -61.00302 28 ft 2 kts 354°
2026-04-29 11:19 14.59452 -61.00300 28 ft 3 kts 353°
2026-04-29 11:19 14.59433 -61.00298 28 ft 3 kts 353°
2026-04-29 11:19 14.59430 -61.00304 28 ft 8 kts 295°
2026-04-29 11:19 14.59399 -61.00291 28 ft 18 kts 123°
2026-04-29 11:20 14.59344 -61.00172 28 ft 19 kts 114°
2026-04-29 11:20 14.59271 -61.00106 28 ft 11 kts 180°
2026-04-29 11:20 14.59229 -61.00192 28 ft 16 kts 262°
2026-04-29 11:20 14.59206 -61.00337 28 ft 23 kts 260°
2026-04-29 11:21 14.59173 -61.00525 28 ft 31 kts 259°
2026-04-29 11:21 14.59138 -61.00735 28 ft 26 kts 259°
2026-04-29 11:21 14.59102 -61.00933 28 ft 28 kts 259°
2026-04-29 11:21 14.59071 -61.01106 28 ft 23 kts 262°
2026-04-29 11:22 14.59044 -61.01272 28 ft 24 kts 259°
2026-04-29 11:22 14.59015 -61.01434 28 ft 21 kts 259°
2026-04-29 11:22 14.59030 -61.01586 28 ft 22 kts 262°
2026-04-29 11:22 14.59007 -61.01731 28 ft 21 kts 260°
2026-04-29 11:23 14.58956 -61.01841 28 ft 14 kts 178°
2026-04-29 11:23 14.58867 -61.01822 28 ft 12 kts 159°
2026-04-29 11:23 14.58854 -61.01789 28 ft 1 kts 79°
2026-04-29 11:23 14.58882 -61.01608 28 ft 69 kts 80°
2026-04-29 11:24 14.59030 -61.00734 28 ft 178 kts 81°
2026-04-29 11:24 14.59282 -60.99228 556 ft 228 kts 81°
2026-04-29 11:24 14.59531 -60.97676 928 ft 217 kts 82°
2026-04-29 11:24 14.59792 -60.96134 1475 ft 222 kts 81°
2026-04-29 11:25 14.60077 -60.94542 1983 ft 227 kts 81°
2026-04-29 11:25 14.60368 -60.92929 2487 ft 230 kts 81°
2026-04-29 11:25 14.60967 -60.91386 2973 ft 236 kts 60°
2026-04-29 11:25 14.62159 -60.90214 3505 ft 246 kts 37°
2026-04-29 11:26 14.65613 -60.89662 4571 ft 264 kts 354°
2026-04-29 11:26 14.67387 -60.90109 5101 ft 267 kts 347°
2026-04-29 11:26 14.69167 -60.90683 5603 ft 267 kts 345°
2026-04-29 11:27 14.70942 -60.91257 6102 ft 267 kts 346°
2026-04-29 11:27 14.72731 -60.91782 6612 ft 267 kts 348°
2026-04-29 11:27 14.74548 -60.92247 7137 ft 268 kts 349°
2026-04-29 11:27 14.76363 -60.92647 7645 ft 269 kts 351°
2026-04-29 11:28 14.78213 -60.93003 8146 ft 271 kts 353°
2026-04-29 11:28 14.80077 -60.93321 8648 ft 273 kts 354°
2026-04-29 11:28 14.81959 -60.93617 9150 ft 274 kts 354°
2026-04-29 11:28 14.83862 -60.93898 9655 ft 276 kts 354°
2026-04-29 11:29 14.85746 -60.94166 10151 ft 277 kts 355°
2026-04-29 11:29 14.87669 -60.94435 10652 ft 279 kts 354°
2026-04-29 11:29 14.89598 -60.94703 11156 ft 280 kts 354°
2026-04-29 11:29 14.91525 -60.95085 11644 ft 284 kts 344°
2026-04-29 11:30 14.93245 -60.96111 12153 ft 289 kts 322°
2026-04-29 11:30 14.94519 -60.97706 12678 ft 295 kts 303°
2026-04-29 11:30 14.95442 -60.99609 13200 ft 297 kts 294°
2026-04-29 11:30 14.96150 -61.01633 13708 ft 298 kts 288°
2026-04-29 11:31 14.96743 -61.03698 14213 ft 299 kts 286°
2026-04-29 11:31 14.97278 -61.05753 14709 ft 300 kts 285°
2026-04-29 11:31 14.97804 -61.07844 15210 ft 301 kts 284°
2026-04-29 11:31 14.98333 -61.09948 15711 ft 302 kts 284°
2026-04-29 11:32 14.98872 -61.12053 16212 ft 304 kts 284°
2026-04-29 11:32 14.99427 -61.14173 16715 ft 306 kts 284°
2026-04-29 11:32 14.99996 -61.16306 17220 ft 307 kts 284°
2026-04-29 11:32 15.00566 -61.18409 17718 ft 308 kts 284°
2026-04-29 11:33 15.01159 -61.20574 18225 ft 309 kts 284°
2026-04-29 11:33 15.01745 -61.22689 18718 ft 310 kts 284°
2026-04-29 11:33 15.02344 -61.24843 19220 ft 312 kts 284°
2026-04-29 11:33 15.02948 -61.27002 19721 ft 313 kts 284°
2026-04-29 11:34 15.03560 -61.29184 20224 ft 315 kts 284°
2026-04-29 11:34 15.04174 -61.31369 20725 ft 317 kts 284°
2026-04-29 11:34 15.04787 -61.33545 21222 ft 319 kts 284°
2026-04-29 11:34 15.05410 -61.35758 21723 ft 321 kts 284°
2026-04-29 11:35 15.06040 -61.37993 22226 ft 323 kts 284°
2026-04-29 11:35 15.06672 -61.40236 22728 ft 325 kts 284°
2026-04-29 11:35 15.07307 -61.42491 23229 ft 328 kts 283°
2026-04-29 11:35 15.07939 -61.44737 23725 ft 330 kts 283°
2026-04-29 11:36 15.08583 -61.47024 24227 ft 332 kts 283°
2026-04-29 11:36 15.09231 -61.49332 24730 ft 334 kts 283°
2026-04-29 11:36 15.09885 -61.51659 25235 ft 336 kts 283°
2026-04-29 11:36 15.10540 -61.53989 25738 ft 338 kts 283°
2026-04-29 11:37 15.11189 -61.56301 26233 ft 339 kts 283°
2026-04-29 11:37 15.11849 -61.58652 26736 ft 341 kts 283°
2026-04-29 11:37 15.12491 -61.61022 27240 ft 341 kts 281°
2026-04-29 11:37 15.12991 -61.63428 27748 ft 342 kts 278°
2026-04-29 11:38 15.13384 -61.65859 28255 ft 342 kts 276°
2026-04-29 11:38 15.13712 -61.68308 28760 ft 343 kts 275°
2026-04-29 11:38 15.14001 -61.70768 29263 ft 345 kts 274°
2026-04-29 11:38 15.14267 -61.73238 29764 ft 346 kts 274°
2026-04-29 11:39 15.14517 -61.75694 30261 ft 347 kts 274°
2026-04-29 11:39 15.14760 -61.78184 30762 ft 348 kts 274°
2026-04-29 11:39 15.15000 -61.80689 31263 ft 349 kts 274°
2026-04-29 11:39 15.15237 -61.83203 31765 ft 351 kts 274°
2026-04-29 11:40 15.15473 -61.85728 32266 ft 352 kts 274°
2026-04-29 11:40 15.15705 -61.88233 32761 ft 354 kts 274°
2026-04-29 11:40 15.15941 -61.90788 33263 ft 356 kts 274°
2026-04-29 11:40 15.16176 -61.93344 33764 ft 358 kts 274°
2026-04-29 11:41 15.16413 -61.95921 34266 ft 360 kts 274°
2026-04-29 11:41 15.16651 -61.98513 34768 ft 363 kts 274°
2026-04-29 11:41 15.16890 -62.01121 35270 ft 365 kts 275°
2026-04-29 11:41 15.17130 -62.03753 35772 ft 368 kts 275°
2026-04-29 11:42 15.17371 -62.06399 35947 ft 379 kts 275°
2026-04-29 11:42 15.17622 -62.09157 36011 ft 390 kts 275°
2026-04-29 11:42 15.18132 -62.14755 36006 ft 389 kts 275°
2026-04-29 11:43 15.18650 -62.20446 36034 ft 404 kts 275°
2026-04-29 11:43 15.19185 -62.26353 36029 ft 419 kts 275°
2026-04-29 11:44 15.19732 -62.32412 36024 ft 423 kts 275°
2026-04-29 11:44 15.20277 -62.38455 36024 ft 425 kts 275°
2026-04-29 11:45 15.20825 -62.44559 36023 ft 426 kts 275°
2026-04-29 11:45 15.21372 -62.50668 36023 ft 426 kts 275°
2026-04-29 11:46 15.21916 -62.56778 36023 ft 426 kts 275°
2026-04-29 11:46 15.22456 -62.62862 36023 ft 426 kts 275°
2026-04-29 11:47 15.22998 -62.68980 36024 ft 426 kts 275°
2026-04-29 11:47 15.23539 -62.75105 36023 ft 426 kts 275°
2026-04-29 11:48 15.24077 -62.81217 36023 ft 426 kts 275°
2026-04-29 11:48 15.24609 -62.87295 36024 ft 426 kts 275°
2026-04-29 11:49 15.25144 -62.93416 36024 ft 425 kts 275°
2026-04-29 11:49 15.25677 -62.99527 36024 ft 425 kts 275°
2026-04-29 11:50 15.26203 -63.05588 36037 ft 425 kts 275°
2026-04-29 11:50 15.26731 -63.11683 36038 ft 425 kts 275°
2026-04-29 11:51 15.27257 -63.17784 36038 ft 424 kts 275°
2026-04-29 11:51 15.27782 -63.23880 36038 ft 424 kts 275°
2026-04-29 11:52 15.28300 -63.29928 36038 ft 424 kts 275°
2026-04-29 11:52 15.28821 -63.36017 36038 ft 423 kts 275°
2026-04-29 11:53 15.29251 -63.41066 36037 ft 423 kts 275°
2026-04-29 11:53 15.29768 -63.47142 36037 ft 423 kts 275°
2026-04-29 11:54 15.30283 -63.53223 36038 ft 422 kts 275°
2026-04-29 11:54 15.30792 -63.59257 36037 ft 422 kts 275°
2026-04-29 11:55 15.31303 -63.65327 36037 ft 422 kts 275°
2026-04-29 11:55 15.31807 -63.71347 36037 ft 421 kts 275°
2026-04-29 11:56 15.32314 -63.77414 36036 ft 421 kts 275°
2026-04-29 11:56 15.32819 -63.83463 36036 ft 421 kts 275°
2026-04-29 11:57 15.33318 -63.89469 36036 ft 421 kts 275°
2026-04-29 11:57 15.33817 -63.95503 36035 ft 420 kts 275°
2026-04-29 11:58 15.34315 -64.01539 36036 ft 420 kts 275°
2026-04-29 11:58 15.34812 -64.07576 36035 ft 420 kts 275°
2026-04-29 11:59 15.35306 -64.13605 36031 ft 420 kts 275°
2026-04-29 11:59 15.35798 -64.19633 36015 ft 420 kts 275°
2026-04-29 12:00 15.36288 -64.25645 36012 ft 419 kts 275°
2026-04-29 12:00 15.36778 -64.31680 36011 ft 419 kts 275°
2026-04-29 12:01 15.37262 -64.37672 36011 ft 419 kts 275°
2026-04-29 12:01 15.37571 -64.41504 36011 ft 419 kts 275°
2026-04-29 12:04 15.37959 -64.46324 36011 ft 419 kts 275°
2026-04-29 12:04 15.38444 -64.52365 36010 ft 419 kts 275°
2026-04-29 12:05 15.38923 -64.58357 36014 ft 419 kts 275°
2026-04-29 12:05 15.39403 -64.64389 36016 ft 419 kts 275°
2026-04-29 12:06 15.39882 -64.70414 36016 ft 419 kts 275°
2026-04-29 12:06 15.40359 -64.76441 36016 ft 419 kts 275°
2026-04-29 12:07 15.40834 -64.82464 36015 ft 419 kts 274°
2026-04-29 12:07 15.41309 -64.88502 36016 ft 419 kts 274°
2026-04-29 12:08 15.41778 -64.94490 36017 ft 419 kts 274°
2026-04-29 12:08 15.42248 -65.00516 36017 ft 419 kts 274°
2026-04-29 12:09 15.42716 -65.06537 36017 ft 419 kts 274°
2026-04-29 12:09 15.43181 -65.12550 36017 ft 419 kts 274°
2026-04-29 12:10 15.43647 -65.18572 36017 ft 419 kts 274°
2026-04-29 12:10 15.44110 -65.24588 36017 ft 419 kts 274°
2026-04-29 12:11 15.44571 -65.30606 36017 ft 419 kts 274°
2026-04-29 12:11 15.45028 -65.36585 36017 ft 418 kts 274°
2026-04-29 12:12 15.45485 -65.42599 36017 ft 418 kts 274°
2026-04-29 12:12 15.45942 -65.48608 36011 ft 418 kts 274°
2026-04-29 12:13 15.46395 -65.54607 36010 ft 417 kts 274°
2026-04-29 12:13 15.46846 -65.60599 36010 ft 417 kts 274°
2026-04-29 12:14 15.47295 -65.66585 36010 ft 417 kts 274°
2026-04-29 12:14 15.47742 -65.72574 36010 ft 417 kts 274°
2026-04-29 12:15 15.48186 -65.78531 36009 ft 417 kts 274°
2026-04-29 12:15 15.48631 -65.84521 36009 ft 417 kts 274°
2026-04-29 12:16 15.49073 -65.90506 36009 ft 416 kts 274°
2026-04-29 12:16 15.49514 -65.96488 36008 ft 416 kts 274°
2026-04-29 12:17 15.49953 -66.02475 36008 ft 416 kts 274°
2026-04-29 12:17 15.50390 -66.08453 36007 ft 415 kts 274°
2026-04-29 12:18 15.50825 -66.14419 36007 ft 415 kts 274°
2026-04-29 12:18 15.51258 -66.20384 36007 ft 415 kts 274°
2026-04-29 12:19 15.51689 -66.26354 36007 ft 415 kts 274°
2026-04-29 12:19 15.52117 -66.32296 36006 ft 415 kts 274°
2026-04-29 12:20 15.52545 -66.38275 36006 ft 416 kts 274°
2026-04-29 12:20 15.52971 -66.44254 36005 ft 416 kts 274°
2026-04-29 12:21 15.53397 -66.50243 36005 ft 416 kts 274°
2026-04-29 12:21 15.53823 -66.56241 36005 ft 417 kts 274°
2026-04-29 12:22 15.54266 -66.62242 36003 ft 418 kts 274°
2026-04-29 12:22 15.54769 -66.68204 36003 ft 418 kts 275°
2026-04-29 12:23 15.55306 -66.74245 36002 ft 418 kts 275°
2026-04-29 12:23 15.55845 -66.80220 36000 ft 418 kts 275°
2026-04-29 12:24 15.56390 -66.86237 36000 ft 419 kts 275°
2026-04-29 12:24 15.56933 -66.92250 36000 ft 419 kts 275°
2026-04-29 12:25 15.57475 -66.98285 36000 ft 419 kts 275°
2026-04-29 12:26 15.58280 -67.07285 35999 ft 419 kts 275°
2026-04-29 12:26 15.58817 -67.13308 35999 ft 419 kts 275°
2026-04-29 12:27 15.59352 -67.19343 35993 ft 419 kts 275°
2026-04-29 12:27 15.59884 -67.25371 35992 ft 419 kts 275°
2026-04-29 12:28 15.60415 -67.31397 35993 ft 420 kts 275°
2026-04-29 12:28 15.60944 -67.37430 35992 ft 420 kts 274°
2026-04-29 12:29 15.61469 -67.43422 35992 ft 420 kts 274°
2026-04-29 12:29 15.61996 -67.49462 35992 ft 420 kts 274°
2026-04-29 12:30 15.62521 -67.55510 35992 ft 420 kts 274°
2026-04-29 12:30 15.63045 -67.61558 35993 ft 421 kts 274°
2026-04-29 12:31 15.63568 -67.67607 35992 ft 420 kts 274°
2026-04-29 12:31 15.64082 -67.73611 35975 ft 421 kts 274°
2026-04-29 12:32 15.64596 -67.79655 35989 ft 420 kts 274°
2026-04-29 12:32 15.65113 -67.85697 35992 ft 420 kts 274°
2026-04-29 12:33 15.65630 -67.91738 35992 ft 420 kts 274°
2026-04-29 12:33 15.66145 -67.97789 35992 ft 420 kts 274°
2026-04-29 12:34 15.66656 -68.03796 35992 ft 420 kts 274°
2026-04-29 12:34 15.67167 -68.09845 35993 ft 420 kts 274°
2026-04-29 12:35 15.67677 -68.15901 35993 ft 420 kts 274°
2026-04-29 12:35 15.68185 -68.21946 35993 ft 420 kts 274°
2026-04-29 12:36 15.68690 -68.27990 35993 ft 420 kts 274°
2026-04-29 12:36 15.69193 -68.34034 35985 ft 420 kts 274°
2026-04-29 12:37 15.69696 -68.40086 35987 ft 420 kts 274°
2026-04-29 12:37 15.70193 -68.46100 35988 ft 420 kts 274°
2026-04-29 12:38 15.70693 -68.52155 35988 ft 420 kts 274°
2026-04-29 12:38 15.71187 -68.58171 35988 ft 420 kts 274°
2026-04-29 12:39 15.71682 -68.64212 35988 ft 420 kts 274°
2026-04-29 12:39 15.72175 -68.70252 35988 ft 420 kts 274°
2026-04-29 12:40 15.72667 -68.76290 35989 ft 420 kts 274°
2026-04-29 12:40 15.73157 -68.82335 35989 ft 419 kts 274°
2026-04-29 12:41 15.73562 -68.87349 35988 ft 419 kts 274°
2026-04-29 12:41 15.74048 -68.93374 35988 ft 419 kts 274°
2026-04-29 12:42 15.74533 -68.99407 35989 ft 419 kts 274°
2026-04-29 12:42 15.75015 -69.05435 35989 ft 419 kts 274°
2026-04-29 12:43 15.75494 -69.11451 35989 ft 418 kts 274°
2026-04-29 12:43 15.75972 -69.17467 35989 ft 418 kts 274°
2026-04-29 12:44 15.76449 -69.23482 35989 ft 418 kts 274°
2026-04-29 12:44 15.76923 -69.29494 35989 ft 417 kts 273°
2026-04-29 12:45 15.77392 -69.35468 35989 ft 417 kts 273°
2026-04-29 12:45 15.77863 -69.41474 35990 ft 417 kts 273°
2026-04-29 12:46 15.78332 -69.47494 35989 ft 417 kts 273°
2026-04-29 12:46 15.78800 -69.53500 35989 ft 417 kts 273°
2026-04-29 12:47 15.79262 -69.59463 35989 ft 417 kts 273°
2026-04-29 12:47 15.79726 -69.65463 35990 ft 417 kts 273°
2026-04-29 12:48 15.80187 -69.71458 35983 ft 417 kts 273°
2026-04-29 12:48 15.80646 -69.77456 35972 ft 417 kts 273°
2026-04-29 12:49 15.81105 -69.83463 35972 ft 417 kts 273°
2026-04-29 12:49 15.81562 -69.89464 35972 ft 417 kts 273°
2026-04-29 12:50 15.82017 -69.95465 35972 ft 417 kts 273°
2026-04-29 12:50 15.82470 -70.01465 35971 ft 417 kts 273°
2026-04-29 12:51 15.82919 -70.07431 35969 ft 417 kts 273°
2026-04-29 12:51 15.83369 -70.13428 35969 ft 417 kts 273°
2026-04-29 12:52 15.83818 -70.19434 35971 ft 417 kts 273°
2026-04-29 12:52 15.84265 -70.25443 35972 ft 417 kts 273°
2026-04-29 12:53 15.84710 -70.31445 35971 ft 417 kts 273°
2026-04-29 12:53 15.85151 -70.37407 35971 ft 417 kts 273°
2026-04-29 12:54 15.85594 -70.43421 35971 ft 417 kts 273°
2026-04-29 12:54 15.86035 -70.49430 35971 ft 417 kts 273°
2026-04-29 12:55 15.86473 -70.55432 35971 ft 417 kts 273°
2026-04-29 12:55 15.86908 -70.61408 35970 ft 417 kts 273°
2026-04-29 12:56 15.87344 -70.67416 35970 ft 417 kts 273°
2026-04-29 12:56 15.87777 -70.73417 35970 ft 417 kts 273°
2026-04-29 12:57 15.88210 -70.79429 35970 ft 417 kts 272°
2026-04-29 12:57 15.88641 -70.85437 35970 ft 417 kts 272°
2026-04-29 12:58 15.89070 -70.91453 35969 ft 417 kts 272°
2026-04-29 12:58 15.89495 -70.97423 35969 ft 416 kts 272°
2026-04-29 12:59 15.89920 -71.03430 35968 ft 416 kts 272°
2026-04-29 12:59 15.90341 -71.09409 35969 ft 417 kts 272°
2026-04-29 13:00 15.90764 -71.15426 35961 ft 417 kts 272°
2026-04-29 13:00 15.91185 -71.21445 35960 ft 417 kts 272°
2026-04-29 13:01 15.91604 -71.27458 35960 ft 417 kts 272°
2026-04-29 13:01 15.92021 -71.33460 35961 ft 417 kts 272°
2026-04-29 13:02 15.92438 -71.39489 35961 ft 417 kts 272°
2026-04-29 13:02 15.92850 -71.45468 35961 ft 417 kts 272°
2026-04-29 13:03 15.93263 -71.51489 35961 ft 418 kts 272°
2026-04-29 13:03 15.93674 -71.57519 35961 ft 418 kts 272°
2026-04-29 13:04 15.94084 -71.63549 35961 ft 418 kts 272°
2026-04-29 13:04 15.94493 -71.69580 35962 ft 419 kts 272°
2026-04-29 13:05 15.94901 -71.75623 35962 ft 419 kts 272°
2026-04-29 13:05 15.95306 -71.81658 35973 ft 419 kts 272°
2026-04-29 13:06 15.95710 -71.87695 35974 ft 419 kts 272°
2026-04-29 13:06 15.96112 -71.93734 35974 ft 419 kts 272°
2026-04-29 13:07 15.96509 -71.99733 35974 ft 419 kts 272°
2026-04-29 13:07 15.96908 -72.05775 35974 ft 419 kts 272°
2026-04-29 13:08 15.97305 -72.11818 35974 ft 419 kts 272°
2026-04-29 13:08 15.97701 -72.17866 35974 ft 419 kts 272°
2026-04-29 13:09 15.98092 -72.23870 35974 ft 419 kts 272°
2026-04-29 13:09 15.98369 -72.29909 35974 ft 418 kts 270°
2026-04-29 13:10 15.98501 -72.35964 35970 ft 418 kts 269°
2026-04-29 13:10 15.98578 -72.42015 35968 ft 418 kts 269°
2026-04-29 13:11 15.98634 -72.48054 35967 ft 418 kts 269°
2026-04-29 13:11 15.98684 -72.54095 35968 ft 418 kts 269°
2026-04-29 13:12 15.98733 -72.60138 35968 ft 418 kts 269°
2026-04-29 13:12 15.98780 -72.66178 35968 ft 418 kts 269°
2026-04-29 13:13 15.98827 -72.72174 35968 ft 417 kts 269°
2026-04-29 13:13 15.98874 -72.78210 35968 ft 417 kts 269°
2026-04-29 13:14 15.98920 -72.84242 35968 ft 417 kts 269°
2026-04-29 13:14 15.98965 -72.90278 35968 ft 417 kts 269°
2026-04-29 13:15 15.99007 -72.96304 35963 ft 417 kts 269°
2026-04-29 13:15 15.99049 -73.02340 35961 ft 417 kts 269°
2026-04-29 13:16 15.99089 -73.08369 35961 ft 417 kts 269°
2026-04-29 13:16 15.99127 -73.14410 35961 ft 417 kts 269°
2026-04-29 13:17 15.99164 -73.20412 35961 ft 417 kts 269°
2026-04-29 13:17 15.99199 -73.26455 35961 ft 417 kts 269°
2026-04-29 13:18 15.99233 -73.32492 35961 ft 417 kts 269°
2026-04-29 13:18 15.99266 -73.38529 35960 ft 417 kts 269°
2026-04-29 13:19 15.99297 -73.44562 35958 ft 417 kts 269°
2026-04-29 13:19 15.99321 -73.50554 35968 ft 418 kts 269°
2026-04-29 13:20 15.99356 -73.56602 35960 ft 418 kts 269°
2026-04-29 13:20 15.99387 -73.62616 35984 ft 417 kts 268°
2026-04-29 13:21 15.99410 -73.68663 35965 ft 418 kts 268°
2026-04-29 13:21 15.99429 -73.74702 35961 ft 417 kts 268°
2026-04-29 13:22 15.99447 -73.80744 35961 ft 418 kts 268°
2026-04-29 13:22 15.99463 -73.86772 35961 ft 417 kts 268°
2026-04-29 13:23 15.99479 -73.92805 35961 ft 417 kts 268°
2026-04-29 13:23 15.99493 -73.98841 35961 ft 417 kts 268°
2026-04-29 13:24 15.99505 -74.04873 35961 ft 417 kts 268°
2026-04-29 13:24 15.99516 -74.10863 35961 ft 417 kts 268°
2026-04-29 13:25 15.99526 -74.16897 35962 ft 417 kts 268°
2026-04-29 13:25 15.99538 -74.25945 35963 ft 417 kts 268°
2026-04-29 13:26 15.99543 -74.31982 35963 ft 417 kts 268°
2026-04-29 13:26 15.99548 -74.38034 35963 ft 417 kts 268°
2026-04-29 13:27 15.99550 -74.44068 35963 ft 417 kts 268°
2026-04-29 13:27 15.99551 -74.50061 35964 ft 417 kts 268°
2026-04-29 13:28 15.99551 -74.56099 35964 ft 417 kts 268°
2026-04-29 13:28 15.99549 -74.61122 35964 ft 418 kts 268°
2026-04-29 13:29 15.99545 -74.67162 35964 ft 418 kts 268°
2026-04-29 13:29 15.99539 -74.73201 35965 ft 418 kts 268°
2026-04-29 13:30 15.99531 -74.79240 35964 ft 418 kts 268°
2026-04-29 13:30 15.99522 -74.85276 35962 ft 417 kts 268°
2026-04-29 13:31 15.99520 -74.91268 35975 ft 418 kts 268°
2026-04-29 13:31 15.99507 -74.97309 35965 ft 418 kts 268°
2026-04-29 13:32 15.99491 -75.03386 35963 ft 418 kts 268°
2026-04-29 13:32 15.99474 -75.09396 35961 ft 418 kts 268°
2026-04-29 13:33 15.99455 -75.15431 35962 ft 418 kts 268°
2026-04-29 13:33 15.99434 -75.21476 35962 ft 418 kts 268°
2026-04-29 13:34 15.99413 -75.27514 35971 ft 417 kts 268°
2026-04-29 13:34 15.99390 -75.33553 35972 ft 418 kts 268°
2026-04-29 13:35 15.99365 -75.39590 35973 ft 418 kts 268°
2026-04-29 13:35 15.99339 -75.45589 35973 ft 418 kts 268°
2026-04-29 13:36 15.99312 -75.51629 35973 ft 417 kts 268°
2026-04-29 13:36 15.99283 -75.57659 35982 ft 417 kts 268°
2026-04-29 13:37 15.99252 -75.63686 35983 ft 417 kts 268°
2026-04-29 13:37 15.99219 -75.69714 35983 ft 417 kts 268°
2026-04-29 13:38 15.99185 -75.75737 35983 ft 417 kts 268°
2026-04-29 13:38 15.99149 -75.81760 35984 ft 417 kts 268°
2026-04-29 13:39 15.99111 -75.87748 35984 ft 417 kts 268°
2026-04-29 13:39 15.99072 -75.93765 35984 ft 417 kts 268°
2026-04-29 13:40 15.99031 -75.99792 35981 ft 417 kts 268°
2026-04-29 13:40 15.98989 -76.05819 35981 ft 416 kts 268°
2026-04-29 13:41 15.98945 -76.11802 35981 ft 417 kts 268°
2026-04-29 13:41 15.98899 -76.17825 35981 ft 416 kts 268°
2026-04-29 13:42 15.98851 -76.23846 35981 ft 416 kts 268°
2026-04-29 13:42 15.98802 -76.29874 35982 ft 416 kts 268°
2026-04-29 13:43 15.98751 -76.35898 35982 ft 416 kts 268°
2026-04-29 13:43 15.98699 -76.41917 35981 ft 417 kts 268°
2026-04-29 13:44 15.98645 -76.47912 35982 ft 417 kts 268°
2026-04-29 13:44 15.98588 -76.53942 35982 ft 417 kts 268°
2026-04-29 13:45 15.98530 -76.59984 35982 ft 418 kts 268°
2026-04-29 13:45 15.98471 -76.66022 35982 ft 418 kts 267°
2026-04-29 13:46 15.98410 -76.72058 35982 ft 418 kts 267°
2026-04-29 13:46 15.98347 -76.78057 35982 ft 418 kts 267°
2026-04-29 13:47 15.98283 -76.84105 35980 ft 418 kts 267°
2026-04-29 13:47 15.98216 -76.90162 35980 ft 419 kts 267°
2026-04-29 13:48 15.98148 -76.96217 35980 ft 419 kts 267°
2026-04-29 13:48 15.98078 -77.02278 35979 ft 419 kts 267°
2026-04-29 13:49 15.98006 -77.08338 35980 ft 420 kts 267°
2026-04-29 13:49 15.97932 -77.14400 35980 ft 420 kts 267°
2026-04-29 13:50 15.97857 -77.20470 35980 ft 420 kts 267°
2026-04-29 13:50 15.97780 -77.26539 35980 ft 420 kts 267°
2026-04-29 13:51 15.97701 -77.32609 35979 ft 420 kts 267°
2026-04-29 13:51 15.97671 -77.38645 35979 ft 421 kts 268°
2026-04-29 13:52 15.97764 -77.44730 35979 ft 421 kts 269°
2026-04-29 13:52 15.97908 -77.50824 35979 ft 422 kts 269°
2026-04-29 13:53 15.98069 -77.56915 35980 ft 422 kts 269°
2026-04-29 13:53 15.98234 -77.63014 35979 ft 422 kts 269°
2026-04-29 13:54 15.98398 -77.69108 35979 ft 422 kts 269°
2026-04-29 13:54 15.98560 -77.75210 35979 ft 422 kts 269°
2026-04-29 13:55 15.98718 -77.81301 35978 ft 422 kts 269°
2026-04-29 13:55 15.98873 -77.87356 35978 ft 422 kts 269°
2026-04-29 13:56 15.99027 -77.93480 35978 ft 422 kts 269°
2026-04-29 13:56 15.99179 -77.99579 35979 ft 422 kts 269°
2026-04-29 13:57 15.99327 -78.05627 35979 ft 422 kts 269°
2026-04-29 13:57 15.99474 -78.11722 35978 ft 422 kts 269°
2026-04-29 13:58 15.99621 -78.17852 35978 ft 422 kts 269°
2026-04-29 13:58 15.99764 -78.23939 35978 ft 422 kts 269°
2026-04-29 13:59 15.99905 -78.30008 35978 ft 422 kts 269°
2026-04-29 13:59 16.00045 -78.36111 35977 ft 422 kts 269°
2026-04-29 14:00 16.00184 -78.42221 35977 ft 422 kts 269°
2026-04-29 14:00 16.00321 -78.48306 35976 ft 422 kts 269°
2026-04-29 14:01 16.00456 -78.54405 35974 ft 422 kts 269°
2026-04-29 14:01 16.00590 -78.60511 35974 ft 422 kts 269°
2026-04-29 14:02 16.00722 -78.66619 35974 ft 422 kts 269°
2026-04-29 14:02 16.00851 -78.72729 35974 ft 422 kts 269°
2026-04-29 14:03 16.00979 -78.78794 35974 ft 422 kts 269°
2026-04-29 14:03 16.01105 -78.84906 35973 ft 422 kts 269°
2026-04-29 14:04 16.01230 -78.91016 35973 ft 422 kts 269°
2026-04-29 14:04 16.01353 -78.97090 35973 ft 422 kts 269°
2026-04-29 14:05 16.01475 -79.03205 35979 ft 422 kts 269°
2026-04-29 14:05 16.01594 -79.09319 35981 ft 423 kts 269°
2026-04-29 14:06 16.01712 -79.15397 35981 ft 423 kts 269°
2026-04-29 14:06 16.01827 -79.21506 35981 ft 423 kts 269°
2026-04-29 14:07 16.01942 -79.27618 35981 ft 423 kts 269°
2026-04-29 14:07 16.02055 -79.33725 35981 ft 423 kts 268°
2026-04-29 14:08 16.02166 -79.39846 35981 ft 423 kts 268°
2026-04-29 14:08 16.02275 -79.45958 35980 ft 423 kts 268°
2026-04-29 14:09 16.02384 -79.52072 35980 ft 423 kts 268°
2026-04-29 14:09 16.02490 -79.58189 35981 ft 423 kts 268°
2026-04-29 14:10 16.02594 -79.64306 35980 ft 423 kts 268°
2026-04-29 14:10 16.02696 -79.70413 35980 ft 423 kts 268°
2026-04-29 14:11 16.02796 -79.76485 35982 ft 422 kts 268°
2026-04-29 14:11 16.02895 -79.82591 35982 ft 422 kts 268°
2026-04-29 14:12 16.02992 -79.88705 35982 ft 422 kts 268°
2026-04-29 14:12 16.03087 -79.94819 35982 ft 422 kts 268°
2026-04-29 14:13 16.03181 -80.00925 35982 ft 422 kts 268°
2026-04-29 14:13 16.03272 -80.07033 35982 ft 422 kts 268°
2026-04-29 14:14 16.03362 -80.13101 35982 ft 422 kts 268°
2026-04-29 14:14 16.03450 -80.19209 35982 ft 422 kts 268°
2026-04-29 14:15 16.03523 -80.24287 35982 ft 422 kts 268°
2026-04-29 14:15 16.03608 -80.30400 35982 ft 423 kts 268°
2026-04-29 14:16 16.03691 -80.36512 35982 ft 423 kts 268°
2026-04-29 14:16 16.03772 -80.42562 35982 ft 423 kts 268°
2026-04-29 14:17 16.03853 -80.48722 35982 ft 423 kts 268°
2026-04-29 14:17 16.03932 -80.54851 35982 ft 424 kts 268°
2026-04-29 14:18 16.04008 -80.60946 35982 ft 424 kts 268°
2026-04-29 14:18 16.04084 -80.67079 35982 ft 424 kts 268°
2026-04-29 14:19 16.04157 -80.73212 35981 ft 424 kts 268°
2026-04-29 14:19 16.04229 -80.79347 35988 ft 425 kts 268°
2026-04-29 14:20 16.04298 -80.85490 35988 ft 425 kts 268°
2026-04-29 14:20 16.04367 -80.91636 35988 ft 425 kts 268°
2026-04-29 14:21 16.04434 -80.97779 35988 ft 425 kts 268°
2026-04-29 14:21 16.04499 -81.03921 35988 ft 425 kts 268°
2026-04-29 14:22 16.04563 -81.10068 35988 ft 425 kts 268°
2026-04-29 14:22 16.04625 -81.16209 35988 ft 425 kts 268°
2026-04-29 14:23 16.04685 -81.22358 35988 ft 425 kts 268°
2026-04-29 14:23 16.04743 -81.28503 35988 ft 425 kts 268°
2026-04-29 14:24 16.04799 -81.34661 35986 ft 425 kts 268°
2026-04-29 14:24 16.04853 -81.40772 35973 ft 425 kts 268°
2026-04-29 14:25 16.04905 -81.46917 35970 ft 425 kts 268°
2026-04-29 14:25 16.04956 -81.53061 35970 ft 425 kts 268°
2026-04-29 14:26 16.05006 -81.59206 35970 ft 424 kts 268°
2026-04-29 14:26 16.05053 -81.65301 35969 ft 424 kts 268°
2026-04-29 14:27 16.05099 -81.71433 35969 ft 424 kts 268°
2026-04-29 14:28 16.05165 -81.80633 35969 ft 424 kts 268°
2026-04-29 14:28 16.05206 -81.86758 35968 ft 423 kts 268°
2026-04-29 14:29 16.05245 -81.92876 35968 ft 423 kts 268°
2026-04-29 14:29 16.05282 -81.98997 35968 ft 423 kts 268°
2026-04-29 14:30 16.05318 -82.05111 35967 ft 423 kts 268°
2026-04-29 14:30 16.05352 -82.11190 35967 ft 423 kts 268°
2026-04-29 14:31 16.05384 -82.17307 35966 ft 423 kts 268°
2026-04-29 14:31 16.05414 -82.23439 35966 ft 423 kts 268°
2026-04-29 14:32 16.05442 -82.29567 35966 ft 424 kts 268°
2026-04-29 14:32 16.05469 -82.35667 35966 ft 424 kts 268°
2026-04-29 14:33 16.05494 -82.41815 35965 ft 425 kts 268°
2026-04-29 14:33 16.05518 -82.47966 35965 ft 425 kts 268°
2026-04-29 14:34 16.05541 -82.54131 35965 ft 426 kts 268°
2026-04-29 14:34 16.05561 -82.60272 35965 ft 427 kts 268°
2026-04-29 14:35 16.05579 -82.66463 35964 ft 428 kts 268°
2026-04-29 14:35 16.05596 -82.72655 35964 ft 429 kts 268°
2026-04-29 14:36 16.05611 -82.78838 35964 ft 430 kts 268°
2026-04-29 14:36 16.05624 -82.85071 35964 ft 431 kts 268°
2026-04-29 14:37 16.05636 -82.91275 35964 ft 432 kts 268°
2026-04-29 14:37 16.05646 -82.97532 35964 ft 433 kts 268°
2026-04-29 14:38 16.05654 -83.03810 35963 ft 434 kts 268°
2026-04-29 14:38 16.05661 -83.10107 35963 ft 435 kts 268°
2026-04-29 14:39 16.05665 -83.16375 35963 ft 436 kts 268°
2026-04-29 14:39 16.05668 -83.22696 35963 ft 437 kts 268°
2026-04-29 14:40 16.05623 -83.29017 35964 ft 437 kts 266°
2026-04-29 14:40 16.05262 -83.35304 35964 ft 437 kts 264°
2026-04-29 14:41 16.04721 -83.41613 35969 ft 438 kts 263°
2026-04-29 14:41 16.04113 -83.47922 35972 ft 438 kts 263°
2026-04-29 14:42 16.03484 -83.54205 35971 ft 439 kts 263°
2026-04-29 14:42 16.02846 -83.60526 35973 ft 439 kts 263°
2026-04-29 14:43 16.02207 -83.66856 35973 ft 440 kts 263°
2026-04-29 14:43 16.01569 -83.73195 35973 ft 440 kts 263°
2026-04-29 14:44 16.00936 -83.79489 35974 ft 440 kts 262°
2026-04-29 14:44 16.00299 -83.85834 35974 ft 440 kts 262°
2026-04-29 14:45 15.99664 -83.92147 35975 ft 440 kts 262°
2026-04-29 14:45 15.99027 -83.98481 35976 ft 440 kts 262°
2026-04-29 14:46 15.98387 -84.04826 35976 ft 440 kts 262°
2026-04-29 14:46 15.97750 -84.11131 35977 ft 440 kts 262°
2026-04-29 14:47 15.97107 -84.17486 35978 ft 440 kts 262°
2026-04-29 14:47 15.96467 -84.23788 35979 ft 440 kts 262°
2026-04-29 14:48 15.95822 -84.30127 35979 ft 440 kts 262°
2026-04-29 14:48 15.95178 -84.36430 35980 ft 440 kts 262°
2026-04-29 14:49 15.94527 -84.42781 35981 ft 440 kts 262°
2026-04-29 14:49 15.93880 -84.49089 35982 ft 441 kts 262°
2026-04-29 14:50 15.93230 -84.55394 35997 ft 441 kts 263°
2026-04-29 14:50 15.92574 -84.61745 36000 ft 441 kts 263°
2026-04-29 14:51 15.91916 -84.68097 36001 ft 442 kts 263°
2026-04-29 14:51 15.91254 -84.74464 36001 ft 442 kts 263°
2026-04-29 14:52 15.90594 -84.80809 36002 ft 443 kts 263°
2026-04-29 14:52 15.89930 -84.87164 36003 ft 444 kts 263°
2026-04-29 14:53 15.89260 -84.93558 36003 ft 443 kts 263°
2026-04-29 14:53 15.88594 -84.99908 36028 ft 446 kts 263°
2026-04-29 14:54 15.87917 -85.06331 36005 ft 446 kts 263°
2026-04-29 14:54 15.87241 -85.12721 36003 ft 447 kts 263°
2026-04-29 14:55 15.86556 -85.19178 36003 ft 448 kts 263°
2026-04-29 14:55 15.85871 -85.25627 36003 ft 449 kts 263°
2026-04-29 14:56 15.85186 -85.32055 36002 ft 451 kts 263°
2026-04-29 14:56 15.84492 -85.38545 36002 ft 452 kts 263°
2026-04-29 14:57 15.83795 -85.45044 36001 ft 453 kts 263°
2026-04-29 14:57 15.83102 -85.51503 35784 ft 446 kts 263°
2026-04-29 14:57 15.82759 -85.54682 35476 ft 435 kts 263°
2026-04-29 14:58 15.82425 -85.57786 35160 ft 427 kts 264°
2026-04-29 14:58 15.82099 -85.60802 34848 ft 421 kts 264°
2026-04-29 14:58 15.81774 -85.63812 34534 ft 417 kts 264°
2026-04-29 14:58 15.81450 -85.66800 34220 ft 414 kts 264°
2026-04-29 14:59 15.81129 -85.69767 33908 ft 411 kts 264°
2026-04-29 14:59 15.80812 -85.72677 33600 ft 409 kts 264°
2026-04-29 14:59 15.80491 -85.75620 33288 ft 408 kts 264°
2026-04-29 14:59 15.80171 -85.78544 32975 ft 406 kts 264°
2026-04-29 15:00 15.79852 -85.81457 32664 ft 405 kts 265°
2026-04-29 15:00 15.79533 -85.84359 32353 ft 404 kts 265°
2026-04-29 15:00 15.79219 -85.87224 32046 ft 403 kts 265°
2026-04-29 15:00 15.78901 -85.90112 31735 ft 402 kts 265°
2026-04-29 15:01 15.78584 -85.92993 31424 ft 401 kts 265°
2026-04-29 15:01 15.78269 -85.95861 31076 ft 401 kts 266°
2026-04-29 15:01 15.78055 -85.97807 30788 ft 401 kts 266°
2026-04-29 15:01 15.77738 -86.00682 30343 ft 400 kts 266°
2026-04-29 15:02 15.77421 -86.03545 29893 ft 399 kts 267°
2026-04-29 15:02 15.77105 -86.06404 29443 ft 397 kts 267°
2026-04-29 15:02 15.76796 -86.09210 28998 ft 395 kts 267°
2026-04-29 15:02 15.76485 -86.12037 28548 ft 393 kts 267°
2026-04-29 15:03 15.76174 -86.14852 28097 ft 391 kts 267°
2026-04-29 15:03 15.75866 -86.17643 27647 ft 388 kts 267°
2026-04-29 15:03 15.75558 -86.20420 27196 ft 386 kts 268°
2026-04-29 15:03 15.75252 -86.23183 26745 ft 384 kts 268°
2026-04-29 15:04 15.74948 -86.25924 26294 ft 381 kts 268°
2026-04-29 15:04 15.74645 -86.28653 25843 ft 379 kts 268°
2026-04-29 15:04 15.74343 -86.31364 25392 ft 377 kts 268°
2026-04-29 15:04 15.74044 -86.34054 24942 ft 374 kts 268°
2026-04-29 15:05 15.73745 -86.36735 24491 ft 372 kts 268°
2026-04-29 15:05 15.73448 -86.39393 24041 ft 370 kts 268°
2026-04-29 15:05 15.73152 -86.42037 23590 ft 367 kts 268°
2026-04-29 15:05 15.72859 -86.44666 23139 ft 365 kts 268°
2026-04-29 15:06 15.72568 -86.47278 22688 ft 362 kts 268°
2026-04-29 15:06 15.72283 -86.49835 22244 ft 360 kts 268°
2026-04-29 15:06 15.71997 -86.52406 21794 ft 357 kts 268°
2026-04-29 15:06 15.71712 -86.54957 21343 ft 355 kts 268°
2026-04-29 15:07 15.71427 -86.57494 20892 ft 352 kts 268°
2026-04-29 15:07 15.71145 -86.60009 20441 ft 349 kts 267°
2026-04-29 15:07 15.70865 -86.62502 19992 ft 347 kts 267°
2026-04-29 15:07 15.70586 -86.64984 19540 ft 344 kts 267°
2026-04-29 15:08 15.70309 -86.67441 19090 ft 342 kts 267°
2026-04-29 15:08 15.70033 -86.69883 18640 ft 339 kts 267°
2026-04-29 15:08 15.69759 -86.72308 18187 ft 337 kts 266°
2026-04-29 15:08 15.69487 -86.74713 17737 ft 334 kts 266°
2026-04-29 15:09 15.69230 -86.77075 17291 ft 331 kts 267°
2026-04-29 15:09 15.68939 -86.79444 16842 ft 330 kts 265°
2026-04-29 15:09 15.68643 -86.81787 16396 ft 325 kts 265°
2026-04-29 15:09 15.68360 -86.84102 15948 ft 320 kts 265°
2026-04-29 15:10 15.68089 -86.86393 15498 ft 319 kts 265°
2026-04-29 15:10 15.67830 -86.88679 15049 ft 318 kts 265°
2026-04-29 15:10 15.67579 -86.90959 14598 ft 317 kts 265°
2026-04-29 15:10 15.67338 -86.93229 14148 ft 315 kts 265°
2026-04-29 15:11 15.67109 -86.95456 13704 ft 314 kts 265°
2026-04-29 15:11 15.66886 -86.97702 13253 ft 312 kts 265°
2026-04-29 15:11 15.66672 -86.99941 12801 ft 310 kts 265°
2026-04-29 15:11 15.66467 -87.02162 12351 ft 308 kts 265°
2026-04-29 15:12 15.66274 -87.04347 11904 ft 306 kts 265°
2026-04-29 15:12 15.66087 -87.06542 11454 ft 304 kts 265°
2026-04-29 15:12 15.65908 -87.08728 11001 ft 302 kts 265°
2026-04-29 15:12 15.65738 -87.10888 10607 ft 298 kts 266°
2026-04-29 15:13 15.65621 -87.13009 10540 ft 293 kts 268°
2026-04-29 15:13 15.65542 -87.15121 10511 ft 293 kts 268°
2026-04-29 15:13 15.65477 -87.17236 10503 ft 293 kts 269°
2026-04-29 15:13 15.65418 -87.19355 10502 ft 294 kts 269°
2026-04-29 15:14 15.65362 -87.21450 10503 ft 294 kts 269°
2026-04-29 15:14 15.65307 -87.23574 10501 ft 294 kts 269°
2026-04-29 15:14 15.65251 -87.25705 10499 ft 294 kts 269°
2026-04-29 15:14 15.65196 -87.27830 10501 ft 294 kts 269°
2026-04-29 15:15 15.65143 -87.29930 10500 ft 294 kts 269°
2026-04-29 15:15 15.65089 -87.32055 10500 ft 294 kts 269°
2026-04-29 15:15 15.65036 -87.34182 10500 ft 294 kts 269°
2026-04-29 15:15 15.64983 -87.36308 10499 ft 294 kts 269°
2026-04-29 15:16 15.64930 -87.38434 10500 ft 294 kts 269°
2026-04-29 15:16 15.64878 -87.40559 10500 ft 295 kts 269°
2026-04-29 15:16 15.64825 -87.42688 10500 ft 294 kts 269°
2026-04-29 15:16 15.64774 -87.44791 10501 ft 294 kts 269°
2026-04-29 15:17 15.64722 -87.46934 10192 ft 299 kts 269°
2026-04-29 15:17 15.64674 -87.49055 9756 ft 288 kts 269°
2026-04-29 15:17 15.64634 -87.51105 9293 ft 279 kts 269°
2026-04-29 15:17 15.64601 -87.53066 8836 ft 272 kts 269°
2026-04-29 15:18 15.64576 -87.55017 8386 ft 268 kts 269°
2026-04-29 15:18 15.64553 -87.56940 7929 ft 264 kts 269°
2026-04-29 15:18 15.64532 -87.58839 7474 ft 262 kts 269°
2026-04-29 15:18 15.64511 -87.60726 7026 ft 259 kts 269°
2026-04-29 15:19 15.64491 -87.62537 6634 ft 252 kts 269°
2026-04-29 15:19 15.64470 -87.64366 6175 ft 253 kts 269°
2026-04-29 15:19 15.64448 -87.66193 5727 ft 252 kts 269°
2026-04-29 15:19 15.64426 -87.68013 5274 ft 249 kts 269°
2026-04-29 15:20 15.64403 -87.69738 4806 ft 236 kts 269°
2026-04-29 15:20 15.64375 -87.71390 4348 ft 224 kts 268°
2026-04-29 15:20 15.64197 -87.72955 4050 ft 210 kts 259°
2026-04-29 15:20 15.63820 -87.74394 4018 ft 205 kts 252°
2026-04-29 15:21 15.63335 -87.75783 3999 ft 204 kts 246°
2026-04-29 15:21 15.62611 -87.77045 4004 ft 203 kts 233°
2026-04-29 15:21 15.61678 -87.78119 4013 ft 203 kts 223°
2026-04-29 15:21 15.60610 -87.79089 3892 ft 206 kts 218°
2026-04-29 15:22 15.59485 -87.80018 3614 ft 206 kts 217°
2026-04-29 15:22 15.58370 -87.80930 3307 ft 201 kts 217°
2026-04-29 15:22 15.57316 -87.81821 3019 ft 192 kts 218°
2026-04-29 15:22 15.56305 -87.82701 2698 ft 188 kts 219°
2026-04-29 15:23 15.55329 -87.83555 2425 ft 183 kts 219°
2026-04-29 15:23 15.54396 -87.84370 2287 ft 167 kts 219°
2026-04-29 15:23 15.53504 -87.85149 2059 ft 168 kts 219°
2026-04-29 15:23 15.52606 -87.85930 1798 ft 167 kts 219°
2026-04-29 15:24 15.51716 -87.86705 1556 ft 166 kts 219°
2026-04-29 15:24 15.50841 -87.87459 1328 ft 164 kts 219°
2026-04-29 15:24 15.49966 -87.88220 1103 ft 166 kts 220°
2026-04-29 15:24 15.49104 -87.88980 1007 ft 156 kts 220°
2026-04-29 15:25 15.48285 -87.89705 757 ft 155 kts 220°
2026-04-29 15:25 15.47458 -87.90427 502 ft 155 kts 219°
2026-04-29 15:25 15.46638 -87.91143 271 ft 154 kts 220°
2026-04-29 15:25 15.45863 -87.91826 97 ft 133 kts 220°
2026-04-29 15:26 15.45307 -87.92312 95 ft 66 kts 220°
2026-04-29 15:26 15.44973 -87.92606 95 ft 61 kts 220°
2026-04-29 15:26 15.44691 -87.92853 95 ft 46 kts 220°
2026-04-29 15:26 15.44572 -87.93000 95 ft 12 kts 289°
2026-04-29 15:27 15.44600 -87.93054 95 ft 5 kts 308°
2026-04-29 15:27 15.44640 -87.93101 95 ft 12 kts 311°
2026-04-29 15:27 15.44681 -87.93148 95 ft 7 kts 315°
2026-04-29 15:27 15.44712 -87.93183 95 ft 4 kts 310°
2026-04-29 15:28 15.44721 -87.93195 95 ft 0 kts 309°